Zurück zum Katalog

METEOR 2-17 DEB

AktivPO
NORAD 38286·DEBRIS·🇷🇺 Russia

Gestartet Jan 30, 1988 von Plesetsk Cosmodrome

Loading…

Nächste Überflüge (nächste 24 Stunden)

TLE

AktuellSource: Space-Track

Epoche: Sep 13, 2026, 12:46 UTC

1 38286U 88005AP  26256.53206692  .00000483  00000-0  29521-3 0  9999
2 38286  82.5396 185.7134 0047832  11.5331 348.6923 14.03541702754984

Verfolge METEOR 2-17 DEB in Echtzeit mit AllMySat

Download on the App Store